Year,Month,Day,Hour,Minute,Value (Times are PST for temperature in C)
2009,09,15,00,00,13.70
2009,09,15,00,01,13.70
2009,09,15,00,02,13.70
2009,09,15,00,03,13.70
2009,09,15,00,04,13.70
2009,09,15,00,05,13.70
2009,09,15,00,06,13.70
2009,09,15,00,07,13.60
2009,09,15,00,08,13.60
2009,09,15,00,09,13.60
2009,09,15,00,10,13.60
2009,09,15,00,11,13.60
2009,09,15,00,12,13.60
2009,09,15,00,13,13.50
2009,09,15,00,14,13.50
2009,09,15,00,15,13.50
2009,09,15,00,16,13.40
2009,09,15,00,17,13.40
2009,09,15,00,18,13.40
2009,09,15,00,19,13.40
2009,09,15,00,20,13.40
2009,09,15,00,21,13.40
2009,09,15,00,22,13.30
2009,09,15,00,23,13.30
2009,09,15,00,24,13.30
2009,09,15,00,25,13.30
2009,09,15,00,26,13.30
2009,09,15,00,27,13.30
2009,09,15,00,28,13.30
2009,09,15,00,29,13.30
2009,09,15,00,30,13.30
2009,09,15,00,31,13.30
2009,09,15,00,32,13.30
2009,09,15,00,33,13.30
2009,09,15,00,34,13.30
2009,09,15,00,35,13.30
2009,09,15,00,36,13.20
2009,09,15,00,37,13.20
2009,09,15,00,38,13.20
2009,09,15,00,39,13.20
2009,09,15,00,40,13.20
2009,09,15,00,41,13.20
2009,09,15,00,42,13.20
2009,09,15,00,43,13.20
2009,09,15,00,44,13.20
2009,09,15,00,45,13.20
2009,09,15,00,46,13.20
2009,09,15,00,47,13.20
2009,09,15,00,48,13.10
2009,09,15,00,49,13.10
2009,09,15,00,50,13.10
2009,09,15,00,51,13.10
2009,09,15,00,52,13.10
2009,09,15,00,53,13.10
2009,09,15,00,54,13.10
2009,09,15,00,55,13.10
2009,09,15,00,56,13.00
2009,09,15,00,57,13.00
2009,09,15,00,58,13.00
2009,09,15,00,59,13.00
2009,09,15,01,00,12.90
2009,09,15,01,01,12.90
2009,09,15,01,02,12.90
2009,09,15,01,03,12.90
2009,09,15,01,04,12.90
2009,09,15,01,05,12.90
2009,09,15,01,06,12.90
2009,09,15,01,07,12.90
2009,09,15,01,08,12.90
2009,09,15,01,09,12.90
2009,09,15,01,10,12.90
2009,09,15,01,11,12.90
2009,09,15,01,12,12.80
2009,09,15,01,13,12.80
2009,09,15,01,14,12.80
2009,09,15,01,15,12.80
2009,09,15,01,16,12.80
2009,09,15,01,17,12.80
2009,09,15,01,18,12.80
2009,09,15,01,19,12.80
2009,09,15,01,20,12.80
2009,09,15,01,21,12.80
2009,09,15,01,22,12.80
2009,09,15,01,23,12.70
2009,09,15,01,24,12.70
2009,09,15,01,25,12.70
2009,09,15,01,26,12.70
2009,09,15,01,27,12.70
2009,09,15,01,28,12.70
2009,09,15,01,29,12.70
2009,09,15,01,30,12.70
2009,09,15,01,31,12.70
2009,09,15,01,32,12.70
2009,09,15,01,33,12.70
2009,09,15,01,34,12.70
2009,09,15,01,35,12.70
2009,09,15,01,36,12.70
2009,09,15,01,37,12.70
2009,09,15,01,38,12.70
2009,09,15,01,39,12.70
2009,09,15,01,40,12.60
2009,09,15,01,41,12.60
2009,09,15,01,42,12.60
2009,09,15,01,43,12.60
2009,09,15,01,44,12.60
2009,09,15,01,45,12.60
2009,09,15,01,46,12.60
2009,09,15,01,47,12.60
2009,09,15,01,48,12.60
2009,09,15,01,49,12.60
2009,09,15,01,50,12.50
2009,09,15,01,51,12.50
2009,09,15,01,52,12.50
2009,09,15,01,53,12.50
2009,09,15,01,54,12.50
2009,09,15,01,55,12.50
2009,09,15,01,56,12.50
2009,09,15,01,57,12.50
2009,09,15,01,58,12.40
2009,09,15,01,59,12.40
2009,09,15,02,00,12.40
2009,09,15,02,01,12.40
2009,09,15,02,02,12.40
2009,09,15,02,03,12.40
2009,09,15,02,04,12.40
2009,09,15,02,05,12.40
2009,09,15,02,06,12.40
2009,09,15,02,07,12.40
2009,09,15,02,08,12.40
2009,09,15,02,09,12.40
2009,09,15,02,10,12.40
2009,09,15,02,11,12.40
2009,09,15,02,12,12.40
2009,09,15,02,13,12.40
2009,09,15,02,14,12.40
2009,09,15,02,15,12.40
2009,09,15,02,16,12.40
2009,09,15,02,17,12.40
2009,09,15,02,18,12.40
2009,09,15,02,19,12.40
2009,09,15,02,20,12.40
2009,09,15,02,21,12.40
2009,09,15,02,22,12.40
2009,09,15,02,23,12.40
2009,09,15,02,24,12.40
2009,09,15,02,25,12.40
2009,09,15,02,26,12.40
2009,09,15,02,27,12.40
2009,09,15,02,28,12.40
2009,09,15,02,29,12.40
2009,09,15,02,30,12.40
2009,09,15,02,31,12.40
2009,09,15,02,32,12.40
2009,09,15,02,33,12.40
2009,09,15,02,34,12.40
2009,09,15,02,35,12.40
2009,09,15,02,36,12.40
2009,09,15,02,37,12.40
2009,09,15,02,38,12.40
2009,09,15,02,39,12.40
2009,09,15,02,40,12.40
2009,09,15,02,41,12.40
2009,09,15,02,42,12.40
2009,09,15,02,43,12.40
2009,09,15,02,44,12.40
2009,09,15,02,45,12.40
2009,09,15,02,46,12.40
2009,09,15,02,47,12.40
2009,09,15,02,48,12.40
2009,09,15,02,49,12.40
2009,09,15,02,50,12.40
2009,09,15,02,51,12.40
2009,09,15,02,52,12.30
2009,09,15,02,53,12.30
2009,09,15,02,54,12.30
2009,09,15,02,55,12.30
2009,09,15,02,56,12.30
2009,09,15,02,57,12.30
2009,09,15,02,58,12.30
2009,09,15,02,59,12.30
2009,09,15,03,00,12.30
2009,09,15,03,01,12.30
2009,09,15,03,02,12.30
2009,09,15,03,03,12.30
2009,09,15,03,04,12.30
2009,09,15,03,05,12.30
2009,09,15,03,06,12.30
2009,09,15,03,07,12.30
2009,09,15,03,08,12.30
2009,09,15,03,09,12.20
2009,09,15,03,10,12.20
2009,09,15,03,11,12.20
2009,09,15,03,12,12.20
2009,09,15,03,13,12.20
2009,09,15,03,14,12.20
2009,09,15,03,15,12.20
2009,09,15,03,16,12.20
2009,09,15,03,17,12.20
2009,09,15,03,18,12.30
2009,09,15,03,19,12.20
2009,09,15,03,20,12.20
2009,09,15,03,21,12.20
2009,09,15,03,22,12.20
2009,09,15,03,23,12.20
2009,09,15,03,24,12.20
2009,09,15,03,25,12.20
2009,09,15,03,26,12.20
2009,09,15,03,27,12.20
2009,09,15,03,28,12.20
2009,09,15,03,29,12.20
2009,09,15,03,30,12.20
2009,09,15,03,31,12.20
2009,09,15,03,32,12.20
2009,09,15,03,33,12.20
2009,09,15,03,34,12.20
2009,09,15,03,35,12.20
2009,09,15,03,36,12.20
2009,09,15,03,37,12.20
2009,09,15,03,38,12.20
2009,09,15,03,39,12.20
2009,09,15,03,40,12.10
2009,09,15,03,41,12.10
2009,09,15,03,42,12.10
2009,09,15,03,43,12.10
2009,09,15,03,44,12.10
2009,09,15,03,45,12.10
2009,09,15,03,46,12.10
2009,09,15,03,47,12.10
2009,09,15,03,48,12.00
2009,09,15,03,49,12.00
2009,09,15,03,50,12.00
2009,09,15,03,51,12.00
2009,09,15,03,52,12.00
2009,09,15,03,53,12.00
2009,09,15,03,54,12.00
2009,09,15,03,55,12.00
2009,09,15,03,56,12.00
2009,09,15,03,57,12.00
2009,09,15,03,58,12.00
2009,09,15,03,59,12.00
2009,09,15,04,00,12.10
2009,09,15,04,01,12.10
2009,09,15,04,02,12.10
2009,09,15,04,03,12.10
2009,09,15,04,04,12.10
2009,09,15,04,05,12.10
2009,09,15,04,06,12.10
2009,09,15,04,07,12.10
2009,09,15,04,08,12.20
2009,09,15,04,09,12.20
2009,09,15,04,10,12.20
2009,09,15,04,11,12.20
2009,09,15,04,12,12.20
2009,09,15,04,13,12.20
2009,09,15,04,14,12.20
2009,09,15,04,15,12.20
2009,09,15,04,16,12.20
2009,09,15,04,17,12.20
2009,09,15,04,18,12.20
2009,09,15,04,19,12.20
2009,09,15,04,20,12.20
2009,09,15,04,21,12.20
2009,09,15,04,22,12.20
2009,09,15,04,23,12.20
2009,09,15,04,24,12.20
2009,09,15,04,25,12.20
2009,09,15,04,26,12.20
2009,09,15,04,27,12.20
2009,09,15,04,28,12.20
2009,09,15,04,29,12.20
2009,09,15,04,30,12.20
2009,09,15,04,31,12.20
2009,09,15,04,32,12.20
2009,09,15,04,33,12.20
2009,09,15,04,34,12.20
2009,09,15,04,35,12.20
2009,09,15,04,36,12.20
2009,09,15,04,37,12.20
2009,09,15,04,38,12.20
2009,09,15,04,39,12.20
2009,09,15,04,40,12.20
2009,09,15,04,41,12.20
2009,09,15,04,42,12.20
2009,09,15,04,43,12.20
2009,09,15,04,44,12.20
2009,09,15,04,45,12.30
2009,09,15,04,46,12.30
2009,09,15,04,47,12.30
2009,09,15,04,48,12.30
2009,09,15,04,49,12.40
2009,09,15,04,50,12.40
2009,09,15,04,51,12.40
2009,09,15,04,52,12.40
2009,09,15,04,53,12.40
2009,09,15,04,54,12.40
2009,09,15,04,55,12.40
2009,09,15,04,56,12.40
2009,09,15,04,57,12.50
2009,09,15,04,58,12.50
2009,09,15,04,59,12.60
2009,09,15,05,00,12.70
2009,09,15,05,01,12.70
2009,09,15,05,02,12.80
2009,09,15,05,03,12.90
2009,09,15,05,04,12.90
2009,09,15,05,05,12.90
2009,09,15,05,06,13.00
2009,09,15,05,07,13.10
2009,09,15,05,08,13.10
2009,09,15,05,09,13.10
2009,09,15,05,10,13.20
2009,09,15,05,11,13.30
2009,09,15,05,12,13.30
2009,09,15,05,13,13.30
2009,09,15,05,14,13.30
2009,09,15,05,15,13.30
2009,09,15,05,16,13.30
2009,09,15,05,17,13.30
2009,09,15,05,18,13.30
2009,09,15,05,19,13.30
2009,09,15,05,20,13.30
2009,09,15,05,21,13.30
2009,09,15,05,22,13.30
2009,09,15,05,23,13.30
2009,09,15,05,24,13.30
2009,09,15,05,25,13.20
2009,09,15,05,26,13.20
2009,09,15,05,27,13.20
2009,09,15,05,28,13.20
2009,09,15,05,29,13.20
2009,09,15,05,30,13.20
2009,09,15,05,31,13.20
2009,09,15,05,32,13.20
2009,09,15,05,33,13.10
2009,09,15,05,34,13.10
2009,09,15,05,35,13.10
2009,09,15,05,36,13.10
2009,09,15,05,37,13.10
2009,09,15,05,38,13.10
2009,09,15,05,39,13.10
2009,09,15,05,40,13.10
2009,09,15,05,41,13.10
2009,09,15,05,42,13.10
2009,09,15,05,43,13.10
2009,09,15,05,44,13.10
2009,09,15,05,45,13.10
2009,09,15,05,46,13.10
2009,09,15,05,47,13.10
2009,09,15,05,48,13.10
2009,09,15,05,49,13.10
2009,09,15,05,50,13.00
2009,09,15,05,51,13.00
2009,09,15,05,52,13.00
2009,09,15,05,53,13.00
2009,09,15,05,54,13.00
2009,09,15,05,55,13.00
2009,09,15,05,56,13.00
2009,09,15,05,57,13.00
2009,09,15,05,58,13.00
2009,09,15,05,59,12.90
2009,09,15,06,00,12.90
2009,09,15,06,01,12.90
2009,09,15,06,02,12.90
2009,09,15,06,03,12.90
2009,09,15,06,04,12.90
2009,09,15,06,05,12.90
2009,09,15,06,06,12.90
2009,09,15,06,07,12.90
2009,09,15,06,08,12.90
2009,09,15,06,09,12.90
2009,09,15,06,10,12.90
2009,09,15,06,11,12.90
2009,09,15,06,12,12.90
2009,09,15,06,13,12.90
2009,09,15,06,14,12.90
2009,09,15,06,15,12.90
2009,09,15,06,16,12.90
2009,09,15,06,17,12.80
2009,09,15,06,18,12.80
2009,09,15,06,19,12.80
2009,09,15,06,20,12.80
2009,09,15,06,21,12.80
2009,09,15,06,22,12.80
2009,09,15,06,23,12.80
2009,09,15,06,24,12.80
2009,09,15,06,25,12.80
2009,09,15,06,26,12.80
2009,09,15,06,27,12.80
2009,09,15,06,28,12.80
2009,09,15,06,29,12.80
2009,09,15,06,30,12.80
2009,09,15,06,31,12.80
2009,09,15,06,32,12.80
2009,09,15,06,33,12.80
2009,09,15,06,34,12.80
2009,09,15,06,35,12.80
2009,09,15,06,36,12.80
2009,09,15,06,37,12.80
2009,09,15,06,38,12.80
2009,09,15,06,39,12.70
2009,09,15,06,40,12.70
2009,09,15,06,41,12.70
2009,09,15,06,42,12.70
2009,09,15,06,43,12.70
2009,09,15,06,44,12.70
2009,09,15,06,45,12.70
2009,09,15,06,46,12.70
2009,09,15,06,47,12.70
2009,09,15,06,48,12.70
2009,09,15,06,49,12.70
2009,09,15,06,50,12.70
2009,09,15,06,51,12.70
2009,09,15,06,52,12.70
2009,09,15,06,53,12.70
2009,09,15,06,54,12.70
2009,09,15,06,55,12.70
2009,09,15,06,56,12.70
2009,09,15,06,57,12.70
2009,09,15,06,58,12.70
2009,09,15,06,59,12.80
2009,09,15,07,00,12.80
2009,09,15,07,01,12.80
2009,09,15,07,02,12.80
2009,09,15,07,03,12.80
2009,09,15,07,04,12.80
2009,09,15,07,05,12.80
2009,09,15,07,06,12.80
2009,09,15,07,07,12.80
2009,09,15,07,08,12.80
2009,09,15,07,09,12.80
2009,09,15,07,10,12.80
2009,09,15,07,11,12.80
2009,09,15,07,12,12.90
2009,09,15,07,13,12.90
2009,09,15,07,14,12.90
2009,09,15,07,15,12.90
2009,09,15,07,16,12.90
2009,09,15,07,17,12.90
2009,09,15,07,18,12.90
2009,09,15,07,19,12.90
2009,09,15,07,20,13.00
2009,09,15,07,21,13.00
2009,09,15,07,22,13.00
2009,09,15,07,23,13.00
2009,09,15,07,24,13.10
2009,09,15,07,25,13.10
2009,09,15,07,26,13.10
2009,09,15,07,27,13.10
2009,09,15,07,28,13.10
2009,09,15,07,29,13.10
2009,09,15,07,30,13.10
2009,09,15,07,31,13.10
2009,09,15,07,32,13.20
2009,09,15,07,33,13.20
2009,09,15,07,34,13.20
2009,09,15,07,35,13.20
2009,09,15,07,36,13.20
2009,09,15,07,37,13.20
2009,09,15,07,38,13.30
2009,09,15,07,39,13.30
2009,09,15,07,40,13.30
2009,09,15,07,41,13.30
2009,09,15,07,42,13.30
2009,09,15,07,43,13.40
2009,09,15,07,44,13.40
2009,09,15,07,45,13.40
2009,09,15,07,46,13.50
2009,09,15,07,47,13.50
2009,09,15,07,48,13.60
2009,09,15,07,49,13.60
2009,09,15,07,50,13.70
2009,09,15,07,51,13.70
2009,09,15,07,52,13.70
2009,09,15,07,53,13.70
2009,09,15,07,54,13.80
2009,09,15,07,55,13.80
2009,09,15,07,56,13.80
2009,09,15,07,57,13.90
2009,09,15,07,58,13.90
2009,09,15,07,59,13.90
2009,09,15,08,00,14.00
2009,09,15,08,01,14.00
2009,09,15,08,02,14.10
2009,09,15,08,03,14.10
2009,09,15,08,04,14.10
2009,09,15,08,05,14.20
2009,09,15,08,06,14.20
2009,09,15,08,07,14.20
2009,09,15,08,08,14.30
2009,09,15,08,09,14.30
2009,09,15,08,10,14.30
2009,09,15,08,11,14.30
2009,09,15,08,12,14.30
2009,09,15,08,13,14.40
2009,09,15,08,14,14.40
2009,09,15,08,15,14.40
2009,09,15,08,16,14.40
2009,09,15,08,17,14.40
2009,09,15,08,18,14.50
2009,09,15,08,19,14.50
2009,09,15,08,20,14.50
2009,09,15,08,21,14.50
2009,09,15,08,22,14.60
2009,09,15,08,23,14.60
2009,09,15,08,24,14.60
2009,09,15,08,25,14.70
2009,09,15,08,26,14.70
2009,09,15,08,27,14.70
2009,09,15,08,28,14.70
2009,09,15,08,29,14.80
2009,09,15,08,30,14.80
2009,09,15,08,31,14.80
2009,09,15,08,32,14.80
2009,09,15,08,33,14.80
2009,09,15,08,34,14.80
2009,09,15,08,35,14.80
2009,09,15,08,36,14.90
2009,09,15,08,37,14.90
2009,09,15,08,38,14.90
2009,09,15,08,39,14.90
2009,09,15,08,40,14.90
2009,09,15,08,41,15.00
2009,09,15,08,42,15.00
2009,09,15,08,43,15.00
2009,09,15,08,44,15.00
2009,09,15,08,45,15.00
2009,09,15,08,46,15.00
2009,09,15,08,47,15.00
2009,09,15,08,48,15.10
2009,09,15,08,49,15.10
2009,09,15,08,50,15.10
2009,09,15,08,51,15.10
2009,09,15,08,52,15.10
2009,09,15,08,53,15.10
2009,09,15,08,54,15.10
2009,09,15,08,55,15.10
2009,09,15,08,56,15.10
2009,09,15,08,57,15.10
2009,09,15,08,58,15.10
2009,09,15,08,59,15.10
2009,09,15,09,00,15.10
2009,09,15,09,01,15.10
2009,09,15,09,02,15.10
2009,09,15,09,03,15.20
2009,09,15,09,04,15.20
2009,09,15,09,05,15.20
2009,09,15,09,06,15.20
2009,09,15,09,07,15.20
2009,09,15,09,08,15.20
2009,09,15,09,09,15.20
2009,09,15,09,10,15.30
2009,09,15,09,11,15.30
2009,09,15,09,12,15.30
2009,09,15,09,13,15.30
2009,09,15,09,14,15.30
2009,09,15,09,15,15.30
2009,09,15,09,16,15.30
2009,09,15,09,17,15.30
2009,09,15,09,18,15.30
2009,09,15,09,19,15.40
2009,09,15,09,20,15.40
2009,09,15,09,21,15.40
2009,09,15,09,22,15.40
2009,09,15,09,23,15.40
2009,09,15,09,24,15.40
2009,09,15,09,25,15.40
2009,09,15,09,26,15.40
2009,09,15,09,27,15.40
2009,09,15,09,28,15.40
2009,09,15,09,29,15.40
2009,09,15,09,30,15.40
2009,09,15,09,31,15.40
2009,09,15,09,32,15.40
2009,09,15,09,33,15.40
2009,09,15,09,34,15.40
2009,09,15,09,35,15.40
2009,09,15,09,36,15.40
2009,09,15,09,37,15.40
2009,09,15,09,38,15.40
2009,09,15,09,39,15.40
2009,09,15,09,40,15.40
2009,09,15,09,41,15.40
2009,09,15,09,42,15.50
2009,09,15,09,43,15.50
2009,09,15,09,44,15.50
2009,09,15,09,45,15.40
2009,09,15,09,46,15.40
2009,09,15,09,47,15.50
2009,09,15,09,48,15.50
2009,09,15,09,49,15.50
2009,09,15,09,50,15.50
2009,09,15,09,51,15.50
2009,09,15,09,52,15.50
2009,09,15,09,53,15.50
2009,09,15,09,54,15.60
2009,09,15,09,55,15.60
2009,09,15,09,56,15.60
2009,09,15,09,57,15.60
2009,09,15,09,58,15.60
2009,09,15,09,59,15.60
2009,09,15,10,00,15.70
2009,09,15,10,01,15.70
2009,09,15,10,02,15.70
2009,09,15,10,03,15.70
2009,09,15,10,04,15.80
2009,09,15,10,05,15.80
2009,09,15,10,06,15.80
2009,09,15,10,07,15.80
2009,09,15,10,08,15.80
2009,09,15,10,09,15.90
2009,09,15,10,10,15.90
2009,09,15,10,11,15.90
2009,09,15,10,12,15.90
2009,09,15,10,13,15.90
2009,09,15,10,14,15.90
2009,09,15,10,15,15.90
2009,09,15,10,16,15.90
2009,09,15,10,17,16.00
2009,09,15,10,18,16.00
2009,09,15,10,19,16.00
2009,09,15,10,20,16.00
2009,09,15,10,21,16.00
2009,09,15,10,22,16.00
2009,09,15,10,23,16.00
2009,09,15,10,24,16.00
2009,09,15,10,25,16.00
2009,09,15,10,26,16.00
2009,09,15,10,27,16.00
2009,09,15,10,28,16.00
2009,09,15,10,29,15.90
2009,09,15,10,30,15.90
2009,09,15,10,31,15.90
2009,09,15,10,32,15.90
2009,09,15,10,33,15.90
2009,09,15,10,34,15.90
2009,09,15,10,35,15.80
2009,09,15,10,36,15.80
2009,09,15,10,37,15.80
2009,09,15,10,38,15.80
2009,09,15,10,39,15.80
2009,09,15,10,40,15.80
2009,09,15,10,41,15.80
2009,09,15,10,42,15.80
2009,09,15,10,43,15.80
2009,09,15,10,44,15.80
2009,09,15,10,45,15.80
2009,09,15,10,46,15.80
2009,09,15,10,47,15.80
2009,09,15,10,48,15.70
2009,09,15,10,49,15.70
2009,09,15,10,50,15.70
2009,09,15,10,51,15.70
2009,09,15,10,52,15.70
2009,09,15,10,53,15.60
2009,09,15,10,54,15.60
2009,09,15,10,55,15.60
2009,09,15,10,56,15.60
2009,09,15,10,57,15.60
2009,09,15,10,58,15.60
2009,09,15,10,59,15.60
2009,09,15,11,00,15.60
2009,09,15,11,01,15.60
2009,09,15,11,02,15.50
2009,09,15,11,03,15.50
2009,09,15,11,04,15.40
2009,09,15,11,05,15.40
2009,09,15,11,06,15.40
2009,09,15,11,07,15.50
2009,09,15,11,08,15.50
2009,09,15,11,09,15.50
2009,09,15,11,10,15.60
2009,09,15,11,11,15.60
2009,09,15,11,12,15.60
2009,09,15,11,13,15.60
2009,09,15,11,14,15.60
2009,09,15,11,15,15.70
2009,09,15,11,16,15.70
2009,09,15,11,17,15.70
2009,09,15,11,18,15.80
2009,09,15,11,19,15.90
2009,09,15,11,20,16.00
2009,09,15,11,21,16.10
2009,09,15,11,22,16.20
2009,09,15,11,23,16.30
2009,09,15,11,24,16.40
2009,09,15,11,25,16.40
2009,09,15,11,26,16.40
2009,09,15,11,27,16.40
2009,09,15,11,28,16.40
2009,09,15,11,29,16.30
2009,09,15,11,30,16.30
2009,09,15,11,31,16.30
2009,09,15,11,32,16.30
2009,09,15,11,33,16.30
2009,09,15,11,34,16.30
2009,09,15,11,35,16.30
2009,09,15,11,36,16.30
2009,09,15,11,37,16.30
2009,09,15,11,38,16.30
2009,09,15,11,39,16.30
2009,09,15,11,40,16.30
2009,09,15,11,41,16.30
2009,09,15,11,42,16.30
2009,09,15,11,43,16.30
2009,09,15,11,44,16.40
2009,09,15,11,45,16.40
2009,09,15,11,46,16.40
2009,09,15,11,47,16.40
2009,09,15,11,48,16.40
2009,09,15,11,49,16.50
2009,09,15,11,50,16.50
2009,09,15,11,51,16.60
2009,09,15,11,52,16.70
2009,09,15,11,53,16.70
2009,09,15,11,54,16.70
2009,09,15,11,55,16.70
2009,09,15,11,56,16.70
2009,09,15,11,57,16.70
2009,09,15,11,58,16.70
2009,09,15,11,59,16.70
2009,09,15,12,00,16.70
2009,09,15,12,01,16.70
2009,09,15,12,02,16.70
2009,09,15,12,03,16.70
2009,09,15,12,04,16.70
2009,09,15,12,05,16.70
2009,09,15,12,06,16.70
2009,09,15,12,07,16.70
2009,09,15,12,08,16.80
2009,09,15,12,09,16.90
2009,09,15,12,10,17.00
2009,09,15,12,11,17.20
2009,09,15,12,12,17.30
2009,09,15,12,13,17.30
2009,09,15,12,14,17.40
2009,09,15,12,15,17.40
2009,09,15,12,16,17.40
2009,09,15,12,17,17.40
2009,09,15,12,18,17.40
2009,09,15,12,19,17.40
2009,09,15,12,20,17.40
2009,09,15,12,21,17.40
2009,09,15,12,22,17.40
2009,09,15,12,23,17.50
2009,09,15,12,24,17.50
2009,09,15,12,25,17.60
2009,09,15,12,26,17.60
2009,09,15,12,27,17.60
2009,09,15,12,28,17.70
2009,09,15,12,29,17.70
2009,09,15,12,30,17.60
2009,09,15,12,31,17.60
2009,09,15,12,32,17.60
2009,09,15,12,33,17.60
2009,09,15,12,34,17.60
2009,09,15,12,35,17.60
2009,09,15,12,36,17.60
2009,09,15,12,37,17.60
2009,09,15,12,38,17.70
2009,09,15,12,39,17.80
2009,09,15,12,40,17.90
2009,09,15,12,41,18.00
2009,09,15,12,42,18.10
2009,09,15,12,43,18.20
2009,09,15,12,44,18.30
2009,09,15,12,45,18.40
2009,09,15,12,46,18.50
2009,09,15,12,47,18.60
2009,09,15,12,48,18.70
2009,09,15,12,49,18.80
2009,09,15,12,50,18.80
2009,09,15,12,51,18.70
2009,09,15,12,52,18.60
2009,09,15,12,53,18.50
2009,09,15,12,54,18.40
2009,09,15,12,55,18.40
2009,09,15,12,56,18.50
2009,09,15,12,57,18.60
2009,09,15,12,58,18.60
2009,09,15,12,59,18.70
2009,09,15,13,00,18.80
2009,09,15,13,01,18.80
2009,09,15,13,02,18.80
2009,09,15,13,03,18.80
2009,09,15,13,04,18.80
2009,09,15,13,05,18.90
2009,09,15,13,06,18.90
2009,09,15,13,07,18.90
2009,09,15,13,08,19.00
2009,09,15,13,09,19.00
2009,09,15,13,10,18.90
2009,09,15,13,11,19.00
2009,09,15,13,12,19.00
2009,09,15,13,13,19.10
2009,09,15,13,14,19.10
2009,09,15,13,15,19.10
2009,09,15,13,16,19.20
2009,09,15,13,17,19.30
2009,09,15,13,18,19.40
2009,09,15,13,19,19.50
2009,09,15,13,20,19.60
2009,09,15,13,21,19.60
2009,09,15,13,22,19.70
2009,09,15,13,23,19.80
2009,09,15,13,24,19.80
2009,09,15,13,25,19.90
2009,09,15,13,26,19.90
2009,09,15,13,27,19.80
2009,09,15,13,28,19.80
2009,09,15,13,29,19.80
2009,09,15,13,30,19.70
2009,09,15,13,31,19.60
2009,09,15,13,32,19.60
2009,09,15,13,33,19.60
2009,09,15,13,34,19.50
2009,09,15,13,35,19.50
2009,09,15,13,36,19.60
2009,09,15,13,37,19.60
2009,09,15,13,38,19.60
2009,09,15,13,39,19.60
2009,09,15,13,40,19.70
2009,09,15,13,41,19.70
2009,09,15,13,42,19.70
2009,09,15,13,43,19.70
2009,09,15,13,44,19.70
2009,09,15,13,45,19.70
2009,09,15,13,46,19.70
2009,09,15,13,47,19.70
2009,09,15,13,48,19.70
2009,09,15,13,49,19.70
2009,09,15,13,50,19.70
2009,09,15,13,51,19.80
2009,09,15,13,52,19.80
2009,09,15,13,53,19.80
2009,09,15,13,54,19.80
2009,09,15,13,55,19.80
2009,09,15,13,56,19.90
2009,09,15,13,57,19.90
2009,09,15,13,58,19.90
2009,09,15,13,59,20.00
2009,09,15,14,00,20.10
2009,09,15,14,01,20.20
2009,09,15,14,02,20.20
2009,09,15,14,03,20.20
2009,09,15,14,04,20.20
2009,09,15,14,05,20.10
2009,09,15,14,06,20.10
2009,09,15,14,07,20.20
2009,09,15,14,08,20.20
2009,09,15,14,09,20.20
2009,09,15,14,10,20.30
2009,09,15,14,11,20.20
2009,09,15,14,12,20.20
2009,09,15,14,13,20.10
2009,09,15,14,14,20.00
2009,09,15,14,15,20.00
2009,09,15,14,16,19.90
2009,09,15,14,17,19.90
2009,09,15,14,18,19.90
2009,09,15,14,19,20.00
2009,09,15,14,20,20.00
2009,09,15,14,21,20.10
2009,09,15,14,22,20.10
2009,09,15,14,23,20.20
2009,09,15,14,24,20.20
2009,09,15,14,25,20.30
2009,09,15,14,26,20.30
2009,09,15,14,27,20.30
2009,09,15,14,28,20.30
2009,09,15,14,29,20.30
2009,09,15,14,30,20.30
2009,09,15,14,31,20.30
2009,09,15,14,32,20.40
2009,09,15,14,33,20.40
2009,09,15,14,34,20.50
2009,09,15,14,35,20.50
2009,09,15,14,36,20.50
2009,09,15,14,37,20.50
2009,09,15,14,38,20.50
2009,09,15,14,39,20.40
2009,09,15,14,40,20.40
2009,09,15,14,41,20.50
2009,09,15,14,42,20.50
2009,09,15,14,43,20.50
2009,09,15,14,44,20.50
2009,09,15,14,45,20.40
2009,09,15,14,46,20.40
2009,09,15,14,47,20.40
2009,09,15,14,48,20.40
2009,09,15,14,49,20.40
2009,09,15,14,50,20.50
2009,09,15,14,51,20.50
2009,09,15,14,52,20.50
2009,09,15,14,53,20.60
2009,09,15,14,54,20.60
2009,09,15,14,55,20.60
2009,09,15,14,56,20.60
2009,09,15,14,57,20.70
2009,09,15,14,58,20.70
2009,09,15,14,59,20.60
2009,09,15,15,00,20.60
2009,09,15,15,01,20.60
2009,09,15,15,02,20.60
2009,09,15,15,03,20.60
2009,09,15,15,04,20.60
2009,09,15,15,05,20.60
2009,09,15,15,06,20.60
2009,09,15,15,07,20.60
2009,09,15,15,08,20.70
2009,09,15,15,09,20.70
2009,09,15,15,10,20.80
2009,09,15,15,11,20.80
2009,09,15,15,12,20.80
2009,09,15,15,13,20.80
2009,09,15,15,14,20.80
2009,09,15,15,15,20.80
2009,09,15,15,16,20.80
2009,09,15,15,17,20.80
2009,09,15,15,18,20.80
2009,09,15,15,19,20.90
2009,09,15,15,20,20.90
2009,09,15,15,21,20.90
2009,09,15,15,22,21.00
2009,09,15,15,23,20.90
2009,09,15,15,24,20.90
2009,09,15,15,25,20.90
2009,09,15,15,26,21.00
2009,09,15,15,27,21.00
2009,09,15,15,28,21.10
2009,09,15,15,29,21.10
2009,09,15,15,30,21.10
2009,09,15,15,31,21.10
2009,09,15,15,32,21.10
2009,09,15,15,33,21.30
2009,09,15,15,34,21.40
2009,09,15,15,35,21.50
2009,09,15,15,36,21.60
2009,09,15,15,37,21.70
2009,09,15,15,38,21.70
2009,09,15,15,39,21.70
2009,09,15,15,40,21.70
2009,09,15,15,41,21.70
2009,09,15,15,42,21.70
2009,09,15,15,43,21.60
2009,09,15,15,44,21.60
2009,09,15,15,45,21.60
2009,09,15,15,46,21.50
2009,09,15,15,47,21.50
2009,09,15,15,48,21.40
2009,09,15,15,49,21.40
2009,09,15,15,50,21.40
2009,09,15,15,51,21.40
2009,09,15,15,52,21.40
2009,09,15,15,53,21.40
2009,09,15,15,54,21.40
2009,09,15,15,55,21.50
2009,09,15,15,56,21.50
2009,09,15,15,57,21.60
2009,09,15,15,58,21.60
2009,09,15,15,59,21.60
2009,09,15,16,00,21.60
2009,09,15,16,01,21.60
2009,09,15,16,02,21.60
2009,09,15,16,03,21.70
2009,09,15,16,04,21.70
2009,09,15,16,05,21.80
2009,09,15,16,06,21.80
2009,09,15,16,07,21.80
2009,09,15,16,08,21.80
2009,09,15,16,09,21.80
2009,09,15,16,10,21.80
2009,09,15,16,11,21.80
2009,09,15,16,12,21.80
2009,09,15,16,13,21.80
2009,09,15,16,14,21.70
2009,09,15,16,15,21.80
2009,09,15,16,16,21.80
2009,09,15,16,17,21.90
2009,09,15,16,18,22.00
2009,09,15,16,19,22.00
2009,09,15,16,20,22.10
2009,09,15,16,21,22.20
2009,09,15,16,22,22.20
2009,09,15,16,23,22.20
2009,09,15,16,24,22.30
2009,09,15,16,25,22.30
2009,09,15,16,26,22.30
2009,09,15,16,27,22.20
2009,09,15,16,28,22.20
2009,09,15,16,29,22.20
2009,09,15,16,30,22.10
2009,09,15,16,31,22.10
2009,09,15,16,32,22.10
2009,09,15,16,33,22.10
2009,09,15,16,34,22.10
2009,09,15,16,35,22.20
2009,09,15,16,36,22.20
2009,09,15,16,37,22.20
2009,09,15,16,38,22.10
2009,09,15,16,39,22.00
2009,09,15,16,40,22.00
2009,09,15,16,41,21.90
2009,09,15,16,42,21.90
2009,09,15,16,43,21.90
2009,09,15,16,44,21.90
2009,09,15,16,45,21.90
2009,09,15,16,46,21.90
2009,09,15,16,47,22.00
2009,09,15,16,48,22.00
2009,09,15,16,49,22.10
2009,09,15,16,50,22.10
2009,09,15,16,51,22.10
2009,09,15,16,52,22.10
2009,09,15,16,53,22.10
2009,09,15,16,54,22.10
2009,09,15,16,55,22.10
2009,09,15,16,56,22.20
2009,09,15,16,57,22.20
2009,09,15,16,58,22.20
2009,09,15,16,59,22.20
2009,09,15,17,00,22.20
2009,09,15,17,01,22.20
2009,09,15,17,02,22.20
2009,09,15,17,03,22.20
2009,09,15,17,04,22.10
2009,09,15,17,05,22.10
2009,09,15,17,06,22.00
2009,09,15,17,07,22.00
2009,09,15,17,08,22.10
2009,09,15,17,09,22.10
2009,09,15,17,10,22.10
2009,09,15,17,11,22.10
2009,09,15,17,12,22.10
2009,09,15,17,13,22.10
2009,09,15,17,14,22.10
2009,09,15,17,15,22.10
2009,09,15,17,16,22.10
2009,09,15,17,17,22.10
2009,09,15,17,18,22.10
2009,09,15,17,19,22.10